Weather History for KFLG - May, 2013

Change the Weather History Date:

Saturday, May 4, 2013

  Actual Average Record
Temperature  
Mean Temperature 48 °F 48 °F  
Max Temperature 68 °F 64 °F 88 °F (1947)
Min Temperature 27 °F 33 °F 18 °F (1915)
Degree Days  
Heating Degree Days 17 17  
Month to date heating degree days 66 68  
Since 1 July heating degree days 6309 6424  
Cooling Degree Days 0 0  
Month to date cooling degree days 0 0  
Year to date cooling degree days 0 0  
Moisture  
Dew Point 9 °F    
Average Humidity 32    
Maximum Humidity 55    
Minimum Humidity 9    
Precipitation  
Precipitation 0.00 in 0.02 in 0.67 in (1960)
Month to date precipitation 0.00 0.10  
Year to date precipitation 5.00 7.58  
Snow  
Snow 0.00 in 0.10 in 3.90 in (1905)
Month to date snowfall 0.0 0.3  
Since 1 July snowfall 69.7 101.3  
Snow Depth 0.00 in    
Sea Level Pressure  
Sea Level Pressure 29.80 in    
Wind  
Wind Speed 8 mph (SW)    
Max Wind Speed 25 mph    
Max Gust Speed 36 mph    
Visibility 10 miles    
Events      
T = Trace of Precipitation, MM = Missing Value Source: NWS Daily Summary

Daily Weather History Graph

Daily Weather History Graph

Search for Another Location

Airport or City:

Trip Planner

Search our weather history database for the weather conditions in past years. The results will help you decide how hot, cold, wet, or windy it might be!

Date:

Astronomy

May. 04, 2013 Rise Set
Actual Time 5:32 AM MST 7:15 PM MST
Civil Twilight 5:04 AM MST 7:42 PM MST
Nautical Twilight 4:31 AM MST 8:15 PM MST
Astronomical Twilight 3:57 AM MST 8:50 PM MST
Moon 2:20 AM MST (5/4) 2:27 PM MST (5/4)
Length of Visible Light 14h 37m
Length of Day
13h 42m
Waning Crescent, 26% of the Moon is Illuminated
May 4
Waning Crescent
May 9
New
May 17
First Quarter
May 24
Full
May 31
Last Quarter

Hourly Weather History & Observations

Time (MST) Temp. Dew Point Humidity Pressure Visibility Wind Dir Wind Speed Gust Speed Precip Events Conditions
12:57 AM 32.0 °F 12.0 °F 44% 29.90 in - Calm Calm - N/A   Clear
1:57 AM 30.9 °F 12.0 °F 46% 29.87 in 10.0 mi Calm Calm - N/A   Clear
2:57 AM 30.0 °F 12.0 °F 47% 29.86 in 10.0 mi Calm Calm - N/A   Clear
3:57 AM 28.0 °F 12.0 °F 51% 29.86 in 10.0 mi Calm Calm - N/A   Clear
4:57 AM 27.0 °F 12.0 °F 53% 29.85 in 10.0 mi Calm Calm - N/A   Clear
5:57 AM 28.9 °F 12.0 °F 49% 29.85 in 10.0 mi Calm Calm - N/A   Clear
6:57 AM 39.9 °F 15.1 °F 36% 29.83 in 10.0 mi Calm Calm - N/A   Clear
7:57 AM 54.0 °F 12.0 °F 19% 29.79 in 10.0 mi SW 6.9 mph - N/A   Clear
8:57 AM 59.0 °F 12.0 °F 16% 29.78 in 10.0 mi SW 10.4 mph - N/A   Clear
9:57 AM 61.0 °F 8.1 °F 12% 29.79 in 10.0 mi WSW 10.4 mph - N/A   Clear
10:57 AM 64.9 °F 6.1 °F 10% 29.80 in 10.0 mi SW 13.8 mph 18.4 mph N/A   Clear
11:57 AM 64.9 °F 7.0 °F 10% 29.80 in 10.0 mi South 9.2 mph 23.0 mph N/A   Clear
12:57 PM 66.0 °F 6.1 °F 9% 29.81 in 10.0 mi SW 15.0 mph 24.2 mph N/A   Clear
1:57 PM 66.9 °F 10.0 °F 11% 29.79 in 10.0 mi South 13.8 mph 21.9 mph N/A   Clear
2:57 PM 66.0 °F 8.1 °F 10% 29.79 in 10.0 mi South 13.8 mph 23.0 mph N/A   Clear
3:57 PM 66.9 °F 10.0 °F 11% 29.78 in 10.0 mi SW 15.0 mph 26.5 mph N/A   Clear
4:57 PM 66.0 °F 6.1 °F 9% 29.79 in 10.0 mi WSW 13.8 mph 26.5 mph N/A   Clear
5:57 PM 64.0 °F 3.9 °F 9% 29.78 in 10.0 mi SW 18.4 mph 23.0 mph N/A   Clear
6:57 PM 60.1 °F 3.9 °F 11% 29.77 in 10.0 mi SSW 12.7 mph - N/A   Clear
7:57 PM 55.0 °F 7.0 °F 15% 29.75 in 10.0 mi SSW 5.8 mph - N/A   Clear
8:57 PM 54.0 °F 7.0 °F 15% 29.75 in 10.0 mi WSW 5.8 mph - N/A   Clear
9:57 PM 53.1 °F 9.0 °F 17% 29.75 in 10.0 mi SW 5.8 mph - N/A   Clear
10:57 PM 53.1 °F 9.0 °F 17% 29.74 in 10.0 mi WSW 5.8 mph - N/A   Clear
11:57 PM 48.9 °F 10.9 °F 22% 29.76 in 10.0 mi SSW 3.5 mph - N/A   Clear